GW0902 Weather Reports


time (UTC)temp
C
wind
direction
speed
KPH
gust
KPH
rain 1hr
cm
rain 24hr
cm
rain mn
cm
humidity
%
barometer
mb
20260505220104 26 355 0.0 3.2 0.00 0.00 0.00 46 1012.8
20260505214531 26 12 0.0 3.2 0.00 0.00 0.00 46 1013.0
20260505213032 26 6 0.0 3.2 0.00 0.00 0.00 46 1013.0
20260505211529 26 18 0.0 1.6 0.00 0.00 0.00 46 1013.2
20260505204531 26 16 0.0 3.2 0.00 0.00 0.00 46 1013.5
20260505203032 26 339 0.0 4.8 0.00 0.00 0.00 46 1013.6
20260505201529 26 329 0.0 4.8 0.00 0.00 0.00 46 1013.6
20260505200116 25 18 0.0 3.2 0.00 0.00 0.00 47 1013.8
20260505193030 25 14 0.0 3.2 0.00 0.00 0.00 48 1014.0
20260505191531 25 15 0.0 1.6 0.00 0.00 0.00 47 1014.1
20260505184529 24 5 0.0 6.4 0.00 0.00 0.00 49 1014.2
20260505183041 24 16 0.0 6.4 0.00 0.00 0.00 49 1014.3
20260505181530 23 351 0.0 4.8 0.00 0.00 0.00 51 1014.2
20260505180030 22 318 0.0 8.0 0.00 0.00 0.00 54 1014.3
20260505174530 21 268 3.2 14.5 0.00 0.00 0.00 54 1014.4
20260505173029 22 273 3.2 11.3 0.00 0.00 0.00 53 1014.4
20260505164529 21 306 0.0 4.8 0.00 0.00 0.00 55 1014.3
20260505161530 20 299 0.0 6.4 0.00 0.00 0.00 58 1014.3
20260505153028 18 79 0.0 6.4 0.00 0.00 0.00 67 1014.1
20260505151603 17 216 1.6 6.4 0.00 0.00 0.00 68 1014.0
20260505124530 14 330 0.0 3.2 0.00 0.00 0.00 78 1012.5
20260505123032 14 297 0.0 1.6 0.00 0.00 0.00 76 1012.3
20260505121643 15 292 0.0 0.0 0.00 0.00 0.00 75 1012.2
20260505120033 15 269 0.0 6.4 0.00 0.00 0.00 74 1012.2
20260505114532 15 295 0.0 4.8 0.00 0.00 0.00 74 1012.1
20260505110106 15 325 0.0 4.8 0.00 0.00 0.00 74 1011.8
20260505101531 16 291 0.0 3.2 0.00 0.00 0.00 73 1011.4
20260505100030 16 293 0.0 3.2 0.00 0.00 0.00 72 1011.4
20260505094531 16 284 0.0 3.2 0.00 0.00 0.00 72 1011.2
20260505093104 16 299 0.0 3.2 0.00 0.00 0.00 74 1011.2
20260505091530 16 269 0.0 1.6 0.00 0.00 0.00 72 1011.1
20260505090030 17 247 0.0 4.8 0.00 0.00 0.00 68 1011.1
20260505084531 18 258 0.0 11.3 0.00 0.00 0.00 66 1011.0
20260505083026 18 314 0.0 11.3 0.00 0.00 0.00 64 1011.0
20260505081530 18 268 0.0 6.4 0.00 0.00 0.00 64 1011.0
20260505080033 18 275 0.0 4.8 0.00 0.00 0.00 64 1010.9
20260505074530 18 274 0.0 9.7 0.00 0.00 0.00 64 1010.9
20260505073106 18 268 0.0 6.4 0.00 0.00 0.00 64 1010.7
20260505071532 18 278 0.0 8.0 0.00 0.00 0.00 66 1010.6
20260505070031 18 259 0.0 3.2 0.00 0.00 0.00 64 1010.6
20260505064532 19 247 0.0 3.2 0.00 0.00 0.00 60 1010.5
20260505063027 20 247 1.6 6.4 0.00 0.00 0.00 58 1010.4
20260505060030 20 297 0.0 20.9 0.00 0.00 0.00 58 1010.1
20260505054530 20 294 0.0 3.2 0.00 0.00 0.00 57 1010.0
20260505053031 20 293 0.0 3.2 0.00 0.00 0.00 56 1010.0
20260505051530 20 258 0.0 3.2 0.00 0.00 0.00 53 1010.0
20260505041530 21 271 3.2 11.3 0.00 0.00 0.00 47 1009.2
20260505040042 22 267 1.6 14.5 0.00 0.00 0.00 48 1009.0
20260505034528 22 267 1.6 12.9 0.00 0.00 0.00 48 1008.8
20260505033031 22 269 1.6 11.3 0.00 0.00 0.00 48 1008.7
20260505031529 22 278 0.0 4.8 0.00 0.00 0.00 47 1008.5
20260505030027 23 265 1.6 12.9 0.00 0.00 0.00 45 1008.3
20260505024529 24 276 0.0 4.8 0.00 0.00 0.00 43 1008.2
20260505023103 25 273 0.0 6.4 0.00 0.00 0.00 40 1008.2
20260505021527 26 265 1.6 11.3 0.00 0.00 0.00 39 1008.1
20260505020031 28 302 0.0 6.4 0.00 0.00 0.00 38 1008.1
20260505014531 28 290 0.0 8.0 0.00 0.00 0.00 37 1008.1
20260505013102 28 296 0.0 6.4 0.00 0.00 0.00 37 1008.1
20260505011530 28 296 0.0 4.8 0.00 0.00 0.00 39 1008.0
20260505010031 28 304 0.0 6.4 0.00 0.00 0.00 37 1008.0
20260505004530 29 276 1.6 16.1 0.00 0.00 0.00 34 1008.1
20260505001528 30 308 0.0 8.0 0.00 0.00 0.00 37 1008.3
20260504234529 30 306 1.6 8.0 0.00 0.00 0.00 34 1008.2
20260504233032 30 292 1.6 11.3 0.00 0.00 0.00 36 1008.2
20260504231529 30 330 1.6 14.5 0.00 0.00 0.00 39 1008.3
20260504230030 30 359 0.0 6.4 0.00 0.00 0.00 39 1008.4